GW4108 Weather Reports


time (UTC)temp
C
wind
direction
speed
KPH
gust
KPH
rain 1hr
cm
rain 24hr
cm
rain mn
cm
humidity
%
barometer
mb
20260906223502 25 89 3.2 9.7 0.00 0.00 0.00 58 1016.1
20260906223000 24 75 3.2 6.4 0.00 0.00 0.00 59 1016.2
20260906222455 25 62 9.7 12.9 0.00 0.00 0.00 60 1016.1
20260906221953 24 18 3.2 11.3 0.00 0.00 0.00 60 1015.8
20260906221447 24 85 3.2 12.9 0.00 0.00 0.00 60 1015.7
20260906220942 23 63 3.2 12.9 0.00 0.00 0.00 63 1015.9
20260906220437 23 9 4.8 16.1 0.00 0.00 0.00 63 1015.8
20260906215937 24 17 8.0 12.9 0.00 0.00 0.00 59 1015.7
20260906215437 24 22 6.4 9.7 0.00 0.00 0.00 59 1015.9
20260906214935 24 27 6.4 14.5 0.00 0.00 0.00 60 1016.0
20260906214434 23 12 8.0 12.9 0.00 0.00 0.00 60 1015.8
20260906213933 24 324 12.9 14.5 0.00 0.00 0.00 60 1016.1
20260906213428 23 39 9.7 14.5 0.00 0.00 0.00 62 1016.0
20260906212926 23 60 0.0 6.4 0.00 0.00 0.00 63 1016.1
20260906212421 25 59 3.2 6.4 0.00 0.00 0.00 60 1016.1
20260906211921 25 23 6.4 12.9 0.00 0.00 0.00 58 1016.1
20260906211416 24 24 6.4 12.9 0.00 0.00 0.00 60 1016.4
20260906210910 23 69 0.0 4.8 0.00 0.00 0.00 60 1016.3
20260906210407 23 108 6.4 11.3 0.00 0.00 0.00 62 1016.6
20260906205900 23 57 3.2 4.8 0.00 0.00 0.00 62 1016.6
20260906205357 23 347 8.0 14.5 0.00 0.00 0.00 64 1016.6
20260906204852 23 37 3.2 11.3 0.00 0.00 0.00 62 1016.4
20260906204351 23 34 3.2 11.3 0.00 0.00 0.00 63 1016.6
20260906203851 24 111 11.3 12.9 0.00 0.00 0.00 61 1016.8
20260906203347 23 98 3.2 6.4 0.00 0.00 0.00 62 1016.9
20260906202844 22 60 1.6 6.4 0.00 0.00 0.00 65 1017.2
20260906202338 22 113 3.2 6.4 0.00 0.00 0.00 65 1017.2
20260906201837 22 132 4.8 9.7 0.00 0.00 0.00 65 1017.1
20260906201333 22 68 6.4 11.3 0.00 0.00 0.00 65 1017.2
20260906200828 22 129 1.6 3.2 0.00 0.00 0.00 63 1017.3
20260906200324 22 158 6.4 14.5 0.00 0.00 0.00 67 1017.2
20260906195818 22 51 3.2 4.8 0.00 0.00 0.00 67 1017.3
20260906195315 22 36 8.0 11.3 0.00 0.00 0.00 65 1017.3
20260906194810 23 9 9.7 12.9 0.00 0.00 0.00 66 1017.6
20260906194301 22 85 3.2 12.9 0.00 0.00 0.00 68 1017.5
20260906193801 22 61 3.2 11.3 0.00 0.00 0.00 68 1017.7
20260906193255 22 5 6.4 11.3 0.00 0.00 0.00 68 1017.7
20260906192751 21 24 3.2 6.4 0.00 0.00 0.00 69 1017.8
20260906192245 22 326 6.4 9.7 0.00 0.00 0.00 69 1017.9
20260906191745 21 347 4.8 4.8 0.00 0.00 0.00 68 1017.8
20260906191240 21 45 3.2 9.7 0.00 0.00 0.00 70 1017.9
20260906190739 20 328 6.4 16.1 0.00 0.00 0.00 72 1017.8
20260906190234 21 38 9.7 12.9 0.00 0.00 0.00 71 1018.0
20260906185733 21 352 12.9 14.5 0.00 0.00 0.00 72 1018.0
20260906185233 21 61 3.2 11.3 0.00 0.00 0.00 71 1018.4
20260906184733 20 16 8.0 11.3 0.00 0.00 0.00 74 1018.2
20260906184228 20 15 6.4 16.1 0.00 0.00 0.00 73 1018.6
20260906183724 20 31 4.8 11.3 0.00 0.00 0.00 73 1018.5
20260906183220 20 14 8.0 16.1 0.00 0.00 0.00 73 1018.6
20260906182720 20 49 4.8 22.5 0.00 0.00 0.00 74 1018.7
20260906182216 19 346 12.9 20.9 0.00 0.00 0.00 76 1018.9
20260906181711 20 17 12.9 16.1 0.00 0.00 0.00 75 1018.8
20260906181208 19 358 3.2 6.4 0.00 0.00 0.00 76 1018.8
20260906180701 19 40 9.7 16.1 0.00 0.00 0.00 77 1019.0
20260906180156 19 24 6.4 11.3 0.00 0.00 0.00 76 1019.0
20260906175654 18 23 6.4 17.7 0.00 0.00 0.00 77 1019.0
20260906175149 18 308 16.1 20.9 0.00 0.00 0.00 79 1019.1
20260906174648 18 24 9.7 16.1 0.00 0.00 0.00 80 1019.4
20260906174143 18 18 11.3 17.7 0.00 0.00 0.00 80 1019.5
20260906173638 18 25 9.7 16.1 0.00 0.00 0.00 82 1019.4
20260906173134 18 331 8.0 16.1 0.00 0.00 0.00 82 1019.6
20260906172632 18 17 9.7 16.1 0.00 0.00 0.00 82 1019.8
20260906172129 18 353 14.5 20.9 0.00 0.00 0.00 81 1019.7
20260906171628 18 348 12.9 17.7 0.00 0.00 0.00 81 1019.6
20260906171124 18 28 6.4 12.9 0.00 0.00 0.00 81 1019.8
20260906170620 17 14 11.3 16.1 0.00 0.00 0.00 83 1019.8
20260906170119 17 336 6.4 14.5 0.00 0.00 0.00 84 1019.8
20260906165615 17 20 6.4 20.9 0.00 0.00 0.00 85 1019.8
20260906165111 17 18 6.4 9.7 0.00 0.00 0.00 84 1019.8
20260906164609 17 11 6.4 12.9 0.00 0.00 0.00 83 1019.9
20260906164105 17 349 12.9 16.1 0.00 0.00 0.00 84 1020.0
20260906163601 17 339 14.5 17.7 0.00 0.00 0.00 84 1020.2
20260906163056 17 356 11.3 16.1 0.00 0.00 0.00 85 1020.0
20260906162554 16 10 6.4 12.9 0.00 0.00 0.00 86 1019.9
20260906162048 16 22 8.0 16.1 0.00 0.00 0.00 86 1019.9
20260906161543 17 342 16.1 17.7 0.00 0.00 0.00 85 1019.8
20260906161042 16 328 8.0 14.5 0.00 0.00 0.00 86 1020.2
20260906160541 16 1 12.9 16.1 0.00 0.00 0.00 86 1019.9
20260906160040 16 345 14.5 16.1 0.00 0.00 0.00 86 1020.2
20260906155538 16 22 4.8 16.1 0.00 0.00 0.00 86 1019.9
20260906155034 17 350 17.7 22.5 0.00 0.00 0.00 85 1019.8
20260906154529 16 9 12.9 16.1 0.00 0.00 0.00 84 1019.8
20260906154028 16 14 3.2 11.3 0.00 0.00 0.00 85 1019.9
20260906153527 16 356 11.3 12.9 0.00 0.00 0.00 85 1020.2
20260906153023 16 358 9.7 16.1 0.00 0.00 0.00 85 1020.0
20260906152516 16 44 1.6 6.4 0.00 0.00 0.00 84 1019.8
20260906152016 17 333 4.8 9.7 0.00 0.00 0.00 83 1020.0
20260906151512 16 41 3.2 4.8 0.00 0.00 0.00 84 1019.7
20260906151007 16 334 9.7 11.3 0.00 0.00 0.00 84 1019.7
20260906150502 17 321 4.8 9.7 0.00 0.00 0.00 82 1019.6
20260906145956 16 82 6.4 11.3 0.00 0.00 0.00 84 1019.5
20260906145455 16 334 9.7 14.5 0.00 0.00 0.00 85 1019.4
20260906144955 16 6 6.4 11.3 0.00 0.00 0.00 84 1019.4
20260906144450 16 354 8.0 12.9 0.00 0.00 0.00 85 1019.6
20260906143945 16 352 9.7 14.5 0.00 0.00 0.00 86 1019.6
20260906143441 15 358 8.0 11.3 0.00 0.00 0.00 87 1019.5
20260906142936 15 335 6.4 9.7 0.00 0.00 0.00 88 1019.5
20260906142431 15 357 4.8 9.7 0.00 0.00 0.00 88 1019.3
20260906141926 15 328 6.4 9.7 0.00 0.00 0.00 88 1019.6
20260906141425 15 348 6.4 6.4 0.00 0.00 0.00 88 1019.4
20260906140920 15 329 3.2 6.4 0.00 0.00 0.00 88 1019.5
20260906140415 15 279 6.4 9.7 0.00 0.00 0.00 88 1019.6
20260906135913 15 294 6.4 6.4 0.00 0.00 0.00 88 1019.3
20260906135412 14 265 4.8 6.4 0.00 0.00 0.00 88 1019.1
20260906134908 14 304 3.2 6.4 0.00 0.00 0.00 89 1019.1
20260906134403 14 281 6.4 6.4 0.00 0.00 0.00 89 1019.4
20260906133858 14 297 3.2 4.8 0.00 0.00 0.00 89 1019.1
20260906133353 14 40 1.6 3.2 0.00 0.00 0.00 88 1019.4
20260906132849 14 296 6.4 11.3 0.00 0.00 0.00 88 1019.1
20260906132344 14 317 3.2 9.7 0.00 0.00 0.00 88 1019.0
20260906131839 15 295 9.7 11.3 0.00 0.00 0.00 87 1019.3
20260906131334 14 23 3.2 6.4 0.00 0.00 0.00 87 1018.6
20260906130830 14 30 3.2 3.2 0.00 0.00 0.00 87 1018.9
20260906130330 14 24 3.2 4.8 0.00 0.00 0.00 87 1018.9
20260906125829 14 33 3.2 6.4 0.00 0.00 0.00 87 1019.3
20260906125326 14 40 3.2 6.4 0.00 0.00 0.00 87 1019.1
20260906124821 14 4 6.4 6.4 0.00 0.00 0.00 87 1019.3
20260906124317 14 31 3.2 9.7 0.00 0.00 0.00 87 1019.1
20260906123816 14 325 4.8 6.4 0.00 0.00 0.00 87 1019.3
20260906123311 14 353 4.8 9.7 0.00 0.00 0.00 87 1019.3
20260906122811 14 38 4.8 9.7 0.00 0.00 0.00 86 1019.4
20260906122301 14 30 3.2 9.7 0.00 0.00 0.00 86 1019.3
20260906121758 15 27 6.4 9.7 0.00 0.00 0.00 86 1019.1
20260906121253 15 31 3.2 9.7 0.00 0.00 0.00 85 1019.4
20260906120748 15 33 3.2 9.7 0.00 0.00 0.00 85 1019.3
20260906120245 15 27 3.2 6.4 0.00 0.00 0.00 85 1019.5
20260906115740 15 12 4.8 9.7 0.00 0.00 0.00 85 1019.4
20260906115235 15 21 4.8 11.3 0.00 0.00 0.00 85 1019.3
20260906114734 15 351 4.8 6.4 0.00 0.00 0.00 84 1019.4
20260906114230 15 0 4.8 9.7 0.00 0.00 0.00 84 1019.4
20260906113725 15 26 6.4 9.7 0.00 0.00 0.00 84 1019.3
20260906113224 15 19 6.4 9.7 0.00 0.00 0.00 83 1019.4
20260906112724 15 29 6.4 9.7 0.00 0.00 0.00 83 1019.3
20260906112221 15 19 4.8 14.5 0.00 0.00 0.00 83 1019.4
20260906111720 15 33 3.2 6.4 0.00 0.00 0.00 84 1019.5
20260906111215 15 34 4.8 6.4 0.00 0.00 0.00 83 1019.6
20260906110710 15 27 3.2 4.8 0.00 0.00 0.00 83 1019.7
20260906110206 15 21 6.4 11.3 0.00 0.00 0.00 83 1019.6
20260906105700 15 35 3.2 6.4 0.00 0.00 0.00 83 1019.7
20260906105156 15 30 3.2 4.8 0.00 0.00 0.00 82 1019.9
20260906104655 15 20 4.8 6.4 0.00 0.00 0.00 82 1019.6
20260906104149 15 12 3.2 6.4 0.00 0.00 0.00 82 1019.7
20260906103647 15 26 3.2 6.4 0.00 0.00 0.00 82 1019.6
20260906103143 15 31 4.8 4.8 0.00 0.00 0.00 82 1019.6
20260906102637 15 21 6.4 6.4 0.00 0.00 0.00 82 1019.6
20260906102132 15 20 4.8 6.4 0.00 0.00 0.00 81 1020.0
20260906101631 15 17 4.8 9.7 0.00 0.00 0.00 81 1020.0
20260906101131 14 4 6.4 9.7 0.00 0.00 0.00 82 1019.7
20260906100627 14 23 3.2 9.7 0.00 0.00 0.00 81 1019.7
20260906100122 13 25 3.2 4.8 0.00 0.00 0.00 81 1019.6
20260906095621 13 20 4.8 4.8 0.00 0.00 0.00 80 1019.9
20260906095117 14 353 4.8 9.7 0.00 0.00 0.00 79 1019.8
20260906094616 14 336 8.0 9.7 0.00 0.00 0.00 80 1019.7
20260906094112 14 339 8.0 11.3 0.00 0.00 0.00 80 1019.8
20260906093608 14 353 4.8 6.4 0.00 0.00 0.00 79 1019.5
20260906093102 14 350 6.4 6.4 0.00 0.00 0.00 79 1019.6
20260906092558 14 339 6.4 6.4 0.00 0.00 0.00 78 1019.8
20260906092053 14 303 3.2 6.4 0.00 0.00 0.00 78 1019.9
20260906091548 14 20 6.4 9.7 0.00 0.00 0.00 78 1019.6
20260906091045 13 351 6.4 6.4 0.00 0.00 0.00 78 1019.7
20260906090545 13 340 3.2 4.8 0.00 0.00 0.00 77 1019.8
20260906090040 14 326 6.4 9.7 0.00 0.00 0.00 77 1019.8
20260906085538 13 347 4.8 9.7 0.00 0.00 0.00 76 1019.8
20260906085038 14 320 6.4 9.7 0.00 0.00 0.00 77 1019.8
20260906084534 14 332 6.4 9.7 0.00 0.00 0.00 75 1019.9
20260906084032 13 323 6.4 11.3 0.00 0.00 0.00 75 1019.8
20260906083528 13 330 8.0 9.7 0.00 0.00 0.00 74 1019.7
20260906083028 14 346 6.4 9.7 0.00 0.00 0.00 73 1020.0
20260906082523 14 355 6.4 6.4 0.00 0.00 0.00 73 1019.8
20260906082019 14 347 4.8 6.4 0.00 0.00 0.00 72 1020.2
20260906081514 13 355 4.8 6.4 0.00 0.00 0.00 73 1019.9
20260906081010 14 333 3.2 4.8 0.00 0.00 0.00 72 1020.3
20260906080506 14 294 4.8 4.8 0.00 0.00 0.00 71 1020.2
20260906080002 14 10 3.2 3.2 0.00 0.00 0.00 71 1020.0
20260906075455 14 40 1.6 3.2 0.00 0.00 0.00 70 1020.3
20260906074950 14 311 3.2 3.2 0.00 0.00 0.00 71 1019.9
20260906074445 15 16 0.0 3.2 0.00 0.00 0.00 69 1020.4
20260906073943 15 84 0.0 3.2 0.00 0.00 0.00 68 1020.0
20260906073438 15 356 1.6 3.2 0.00 0.00 0.00 68 1020.0
20260906072935 15 80 0.0 3.2 0.00 0.00 0.00 66 1020.0
20260906072430 15 75 0.0 1.6 0.00 0.00 0.00 66 1019.9
20260906071926 14 78 0.0 3.2 0.00 0.00 0.00 67 1020.3
20260906071422 15 67 0.0 0.0 0.00 0.00 0.00 67 1020.4
20260906070918 15 75 0.0 0.0 0.00 0.00 0.00 65 1020.5
20260906070413 15 100 0.0 0.0 0.00 0.00 0.00 64 1020.3
20260906065909 15 113 0.0 0.0 0.00 0.00 0.00 62 1020.4
20260906065403 16 101 1.6 3.2 0.00 0.00 0.00 62 1020.5
20260906064859 16 95 0.0 0.0 0.00 0.00 0.00 62 1020.2
20260906064354 16 47 1.6 3.2 0.00 0.00 0.00 61 1020.3
20260906063848 16 64 0.0 1.6 0.00 0.00 0.00 61 1020.5
20260906063344 16 73 1.6 3.2 0.00 0.00 0.00 61 1020.3
20260906062839 15 34 1.6 3.2 0.00 0.00 0.00 61 1020.6
20260906062338 16 94 0.0 0.0 0.00 0.00 0.00 59 1020.5
20260906061834 16 85 1.6 3.2 0.00 0.00 0.00 58 1020.5
20260906061330 16 148 1.6 3.2 0.00 0.00 0.00 58 1020.4
20260906060825 16 357 3.2 4.8 0.00 0.00 0.00 58 1020.3
20260906060323 16 70 1.6 1.6 0.00 0.00 0.00 57 1020.4
20260906055818 17 108 0.0 0.0 0.00 0.00 0.00 56 1020.5
20260906055314 17 83 0.0 1.6 0.00 0.00 0.00 55 1020.3
20260906054809 17 59 1.6 3.2 0.00 0.00 0.00 54 1020.4
20260906054304 17 304 3.2 3.2 0.00 0.00 0.00 54 1020.5
20260906053801 17 32 3.2 3.2 0.00 0.00 0.00 53 1020.4
20260906053256 17 358 3.2 3.2 0.00 0.00 0.00 53 1020.4
20260906052751 18 9 3.2 6.4 0.00 0.00 0.00 53 1020.3
20260906052247 18 22 1.6 3.2 0.00 0.00 0.00 53 1020.5
20260906051743 18 3 1.6 4.8 0.00 0.00 0.00 52 1020.4
20260906051237 18 28 1.6 3.2 0.00 0.00 0.00 52 1020.2
20260906050733 18 34 1.6 3.2 0.00 0.00 0.00 52 1020.4
20260906050228 18 79 0.0 0.0 0.00 0.00 0.00 52 1020.5
20260906045726 18 96 0.0 0.0 0.00 0.00 0.00 52 1020.6
20260906045222 18 104 0.0 0.0 0.00 0.00 0.00 52 1020.5
20260906044717 18 101 0.0 0.0 0.00 0.00 0.00 51 1020.5
20260906044212 18 87 0.0 1.6 0.00 0.00 0.00 50 1020.4
20260906043708 18 75 1.6 3.2 0.00 0.00 0.00 50 1020.5
20260906043204 18 45 3.2 3.2 0.00 0.00 0.00 50 1020.4
20260906042703 18 2 3.2 4.8 0.00 0.00 0.00 50 1020.4
20260906042156 18 36 1.6 3.2 0.00 0.00 0.00 50 1020.4
20260906041652 18 50 1.6 3.2 0.00 0.00 0.00 50 1020.6
20260906041147 18 53 1.6 3.2 0.00 0.00 0.00 50 1020.5
20260906040642 18 57 1.6 3.2 0.00 0.00 0.00 50 1020.6
20260906040138 18 35 1.6 3.2 0.00 0.00 0.00 50 1020.5
20260906035633 18 357 3.2 3.2 0.00 0.00 0.00 49 1020.4
20260906035129 18 46 3.2 3.2 0.00 0.00 0.00 49 1020.4
20260906034630 18 80 1.6 3.2 0.00 0.00 0.00 48 1020.3
20260906034124 18 78 0.0 1.6 0.00 0.00 0.00 48 1020.3
20260906033620 18 81 1.6 3.2 0.00 0.00 0.00 48 1020.4
20260906033120 18 71 0.0 1.6 0.00 0.00 0.00 48 1020.5
20260906032617 18 83 0.0 1.6 0.00 0.00 0.00 47 1020.4
20260906032116 18 71 1.6 1.6 0.00 0.00 0.00 47 1020.5
20260906031612 18 79 0.0 0.0 0.00 0.00 0.00 46 1020.4
20260906031107 19 56 3.2 3.2 0.00 0.00 0.00 45 1020.2
20260906030606 19 78 0.0 3.2 0.00 0.00 0.00 45 1020.3
20260906030101 19 100 0.0 1.6 0.00 0.00 0.00 44 1020.3
20260906025555 19 87 0.0 1.6 0.00 0.00 0.00 44 1020.4
20260906025054 20 79 0.0 3.2 0.00 0.00 0.00 44 1020.4
20260906024549 20 102 1.6 3.2 0.00 0.00 0.00 43 1020.3
20260906024043 20 88 1.6 4.8 0.00 0.00 0.00 43 1019.9
20260906023540 20 66 1.6 3.2 0.00 0.00 0.00 43 1020.0
20260906023034 20 56 4.8 6.4 0.00 0.00 0.00 42 1020.4
20260906022530 20 62 3.2 4.8 0.00 0.00 0.00 42 1020.2
20260906022025 20 41 1.6 3.2 0.00 0.00 0.00 43 1020.0
20260906021521 20 43 3.2 4.8 0.00 0.00 0.00 43 1020.0
20260906021020 20 95 0.0 3.2 0.00 0.00 0.00 42 1019.9
20260906020519 21 80 1.6 3.2 0.00 0.00 0.00 41 1020.0
20260906020019 21 53 3.2 3.2 0.00 0.00 0.00 41 1019.9
20260906015518 21 53 3.2 4.8 0.00 0.00 0.00 40 1019.8
20260906015012 21 77 1.6 6.4 0.00 0.00 0.00 40 1019.9
20260906014507 21 80 1.6 3.2 0.00 0.00 0.00 40 1019.9
20260906014003 22 80 3.2 6.4 0.00 0.00 0.00 39 1019.9
20260906013458 22 57 1.6 9.7 0.00 0.00 0.00 39 1019.9
20260906012948 22 10 3.2 9.7 0.00 0.00 0.00 39 1019.9
20260906012443 22 49 4.8 11.3 0.00 0.00 0.00 39 1019.8
20260906011942 23 82 3.2 9.7 0.00 0.00 0.00 39 1019.8
20260906011438 23 88 6.4 12.9 0.00 0.00 0.00 38 1019.8
20260906010933 23 39 8.0 12.9 0.00 0.00 0.00 38 1019.7
20260906010428 23 10 3.2 11.3 0.00 0.00 0.00 38 1019.7
20260906005924 23 50 3.2 6.4 0.00 0.00 0.00 37 1019.6
20260906005423 24 53 8.0 12.9 0.00 0.00 0.00 37 1019.6
20260906004922 24 44 4.8 6.4 0.00 0.00 0.00 36 1019.5
20260906004417 24 43 3.2 9.7 0.00 0.00 0.00 36 1019.6
20260906003913 24 42 6.4 9.7 0.00 0.00 0.00 35 1019.7
20260906003407 25 1 3.2 4.8 0.00 0.00 0.00 35 1019.6
20260906002902 25 62 6.4 11.3 0.00 0.00 0.00 34 1019.6
20260906002401 25 33 6.4 14.5 0.00 0.00 0.00 34 1019.5
20260906001852 25 44 9.7 16.1 0.00 0.00 0.00 34 1019.5
20260906001348 25 21 3.2 6.4 0.00 0.00 0.00 33 1019.6
20260906000843 25 49 6.4 12.9 0.00 0.00 0.00 33 1019.8
20260906000342 25 10 6.4 12.9 0.00 0.00 0.00 32 1019.8
20260905235837 25 29 6.4 12.9 0.00 0.00 0.00 32 1019.6
20260905235332 25 10 4.8 14.5 0.00 0.00 0.00 32 1019.7
20260905234827 25 50 4.8 9.7 0.00 0.00 0.00 32 1019.5
20260905234322 25 70 6.4 11.3 0.00 0.00 0.00 32 1019.7
20260905233817 26 56 4.8 9.7 0.00 0.00 0.00 32 1019.5
20260905233312 25 92 3.2 14.5 0.00 0.00 0.00 32 1019.5
20260905232811 25 35 9.7 16.1 0.00 0.00 0.00 32 1019.5
20260905232307 25 83 3.2 9.7 0.00 0.00 0.00 32 1019.3
20260905231803 26 46 12.9 14.5 0.00 0.00 0.00 31 1019.5
20260905231258 26 13 6.4 9.7 0.00 0.00 0.00 31 1019.4
20260905230754 25 40 8.0 12.9 0.00 0.00 0.00 31 1019.3
20260905230251 26 70 6.4 16.1 0.00 0.00 0.00 31 1019.3
20260905225746 26 100 3.2 6.4 0.00 0.00 0.00 31 1019.4
20260905225241 25 92 4.8 16.1 0.00 0.00 0.00 31 1019.1
20260905224740 25 99 12.9 20.9 0.00 0.00 0.00 31 1019.4
20260905224236 26 29 4.8 17.7 0.00 0.00 0.00 31 1019.0
20260905223732 25 26 6.4 11.3 0.00 0.00 0.00 31 1019.1